Torna al catalogo

COSMOS 2251 DEB

AttivoLEO
NORAD 35793·DEBRIS·🇷🇺 Russia

Lanciato Jun 16, 1993 da Plesetsk Cosmodrome

Loading…

Prossimi Passaggi (prossime 24 ore)

TLE

AggiornatoSource: Space-Track

Epoca: Sep 13, 2026, 08:24 UTC

1 35793U 93036ASP 26256.35033774  .00007763  00000-0  90982-3 0  9995
2 35793  74.0371 237.3405 0008622 257.3329 173.6904 14.85124041698669

Traccia COSMOS 2251 DEB in tempo reale con AllMySat

Download on the App Store